{"data":{"norad_id":57677,"epoch":"2026-05-25T04:18:25.104672Z","epoch_age_seconds":56192,"freshness":"FRESH","line1":"1 57677U 23124Q   26145.17945723  .00000736  00000+0  36979-4 0  9993","line2":"2 57677  53.1595 211.1903 0001143  84.9552 275.1579 15.30191900155287","mean_motion":15.301919,"eccentricity":0.0001143,"inclination_deg":53.1595,"raan_deg":211.1903,"arg_perigee_deg":84.9552,"mean_anomaly_deg":275.1579,"bstar":3.6979e-5,"rev_number":15528,"period_min":94.105843848736,"perigee_km":474.45591376007,"apogee_km":476.02259557188,"semimajor_km":6853.376254666,"source":"CELESTRAK","updated_at":"2026-05-25T13:38:18.369115Z"}}